Regional Weather Roundup
Issued by NWS Wakefield, VA

Home | Current Version | Previous Version | Graphics & Text | Print | Product List | Glossary On
Versions: 1 2 3 4 5 6 7 8 9 10 11 12 13 14 15 16 17 18 19 20 21 22 23 24 25 26 27 28 29 30 31 32 33 34 35 36 37 38 39 40 41 42 43 44 45 46 47 48 49 50
000
ASUS41 KAKQ 011810
RWRAKQ

REGIONAL WEATHER ROUNDUP
NATIONAL WEATHER SERVICE WAKEFIELD VA
100 PM EST SUN MAR 01 2015

Note: "fair" indicates few or no clouds below 12,000 feet with no
significant weather and/or obstructions to visibility. * = Denotes
station may not report precipitation (e.g., rain,snow,etc.),
thunder or fog.

VAZ042-051-052>054-056-011900-
NORTHERN VIRGINIA

CITY           SKY/WX    TMP DP  RH WIND       PRES   REMARKS
WASH NATIONAL  FRZ RAIN  30  25  81 S5        30.54F
DULLES         FRZ RAIN  27  23  85 S9        30.50F
FORT BELVOIR   FRZ RAIN  28  25  89 W1        30.52F
QUANTICO       MIX PCPN  28  25  88 S5        30.54F FOG
FREDERICKSBRG* MIX PCPN  30  30 100 CALM      30.52F
STAFFORD*      MIX PCPN  28  52 100 S3        30.56F
WARRENTON      LGT RAIN  30  29  98 CALM      30.50F
CULPEPER*      MIX PCPN  30  27  86 S3        30.50F
MANASSAS*      NOT AVBL
LEESBURG*      MIX PCPN  30  30 100 S9        30.49F
WINCHESTER     MIX PCPN  32  23  69 S7        30.43F
FRONT ROYAL*   CLOUDY    30  27  86 CALM      30.43F
LURAY*         CLOUDY    34  28  80 SW3       30.42F
$$

VAZ048-049-060>072-079>083-011900-
CENTRAL AND SOUTH CENTRAL VIRGINIA

CITY           SKY/WX    TMP DP  RH WIND       PRES   REMARKS
RICHMOND       FRZ DRZL  29  25  85 CALM      30.52F FOG
CHESTERFIELD*  CLOUDY    28  18  64 CALM      30.53F
PETERSBURG*    CLOUDY    31  29  92 N3        30.53F FOG
HANOVER        FRZ RAIN  28  26  92 CALM      30.53F FOG
TAPPAHANNOCK*  MIX PCPN  30  26  86 CALM      30.54F
QUINTON*       CLOUDY    28  26  92 N3        30.54F
CHARLOTTSVILLE LGT RAIN  29  20  69 S3        30.47F
GORDONSVILLE*  CLOUDY    28  22  78 CALM      30.48F HAZE
ORANGE*        CLOUDY    30  27  86 CALM      30.50F
LOUISA*        MIX PCPN  28  27  93 CALM      30.48F
BUMPASS*       CLOUDY    28  26  91 SW6       30.51F
FARMVILLE*     LGT SNOW  34  29  82 CALM      30.51F
CREWE*         CLOUDY    30  28  93 NW3       30.51F
FORT PICKETT*  CLOUDY    29  28  96 N5        30.50F
CHASE CITY*    CLOUDY    32  32 100 CALM      30.49F
CLARKSVILLE*   CLOUDY    32  30  93 CALM      30.50F
SOUTH HILL*    CLOUDY    30  28  94 N3        30.55F
LAWRENCEVILLE* CLOUDY    30  28  94 N3        30.50F
EMPORIA*       FLURRIES  30  28  93 NW3       30.52F
$$

VAZ088>098-011900-
SOUTHEAST VIRGINIA

CITY           SKY/WX    TMP DP  RH WIND       PRES   REMARKS
NORFOLK        MIX PCPN  33  28  81 N7        30.49F
VIRGINIA BEACH CLOUDY    38  31  76 N6        30.48F
NORFOLK NAVAL  CLOUDY    35  28  75 NE9       30.50F
WEST POINT*    CLOUDY    32  28  83 CALM      30.54F
SALUDA*        CLOUDY    28  27  93 N5        30.52F
NEWPORT NEWS   LGT RAIN  34  28  79 NE5       30.50F
LANGLEY AFB    CLOUDY    32  28  86 NE6       30.49F
FORT EUSTIS    CLOUDY    32  31  96 NE3       30.48F
WILLIAMSBURG*  CLOUDY    34  30  86 NE3       30.51F
HR EXEC AP*    MOCLDY    36  28  75 E7        30.51F
FRANKLIN*      LGT RAIN  32  31  94 N5        30.51F
WAKEFIELD      CLOUDY    32  27  81 N5        30.51F
$$

VAZ020-022-025-037-045-011900-
WEST CENTRAL AND SOUTHWEST VIRGINIA

CITY           SKY/WX    TMP DP  RH WIND       PRES   REMARKS
STAUNTON*      CLOUDY    33  24  69 SW7       30.43F
WAYNESBORO*    CLOUDY    30  23  74 CALM      30.40F
HOT SPRINGS VA CLOUDY    39  36  88 SW17      30.29F
LYNCHBURG      FRZ RAIN  28  25  88 SW3       30.49F FOG
DANVILLE       CLOUDY    33  29  85 CALM      30.50F FOG
SOUTH BOSTON*  CLOUDY    31  29  94 NW5       30.51F
MARTINSVILLE   CLOUDY    32  28  86 CALM      30.49F
ROANOKE        CLOUDY    32  16  51 E3        30.47F
BLACKSBURG     PTSUNNY   37  24  58 CALM      30.43F
DUBLIN*        PTSUNNY   38  26  61 CALM      30.40F
MARION*        CLOUDY    44  28  54 E3        30.37F
HILLSVILLE*    PTSUNNY   48  41  77 S8        30.36F
RICHLANDS*     CLOUDY    50  35  55 SW7       30.34F
WISE*          CLOUDY    46  34  61 SW6       30.35F
ABINGDON*      CLOUDY    49  32  51 CALM      30.36F
$$

MDZ021>025-VAZ099-100-011900-
SOUTHERN MARYLAND AND THE DELMARVA PENINSULA

CITY           SKY/WX    TMP DP  RH WIND       PRES   REMARKS
PATUXENT RIVER FRZ RAIN  26  22  84 CALM      30.54F FOG
BAY BRIDGE APT LGT SNOW  28  27  93 CALM      30.54F
LEONARDTOWN    CLOUDY    28  27  93 CALM      30.55F
DOVER          FRZ RAIN  28  28  99 S3        30.53F FOG
GEORGETOWN     FRZ RAIN  29  26  89 NE3       30.53F FOG
EASTON         LGT SNOW  28  28 100 CALM      30.57F VSB 1
CAMBRIDGE      CLOUDY    30  27  86 CALM      30.54F
SALISBURY      MIX PCPN  32  28  85 NW3       30.52F FOG
OCEAN CITY     FRZ RAIN  30  28  92 N6        30.51F FOG
WALLOPS ISLAND CLOUDY    31  29  92 NE6       30.50F FOG
ACCOMACK*      CLOUDY    32  28  86 N3        30.50F
$$

NCZ012>017-030>032-011900-
NORTH CENTRAL AND EASTERN NORTH CAROLINA

CITY           SKY/WX    TMP DP  RH WIND       PRES   REMARKS
ROANOKE RAPIDS LGT RAIN  32  32 100 N3        30.50F
RALEIGH        LGT RAIN  33  30  88 NE6       30.47F FOG
ELIZABETH CITY LGT RAIN  40  38  93 CALM      30.48F FOG
AHOSKIE*       MIX PCPN  33  32  96 CALM      30.50S
EDENTON*       RAIN      38  37  95 CALM      30.48F
CURRITUCK*     LGT RAIN  39  35  86 CALM      30.50F
KILL DEVIL HLS CLOUDY    47  46  97 CALM      30.48F FOG
MANTEO         CLOUDY    50  45  81 SW3       30.49F
CAPE HATTERAS  CLOUDY    53  46  77 SE13      30.45F
TARBORO*       RAIN      35  33  92 NW3       30.51F
GOLDSBORO      CLOUDY    36  35  99 N1        30.45F
WASHINGTON     RAIN      40  37  90 NE3       30.47F
GREENVILLE     LGT RAIN  37  36  93 E3        30.47F
NEW BERN       LGT RAIN  50  42  74 N6        30.46F
WILMINGTON     CLOUDY    58  49  72 E6        30.43F
$$

VAZ048-011900-
ELSEWHERE

CITY           SKY/WX    TMP DP  RH WIND       PRES   REMARKS
HARRISBURG PA  LGT SNOW  25  21  85 SE8       30.48F VSB 3/4
BALTIMORE      FRZ RAIN  28  26  92 S3        30.51F FOG
ANNAPOLIS      FRZ RAIN  27  24  89 SE3       30.54F FOG
ANDREWS AFB    FRZ RAIN  29  26  91 W2        30.50F FOG
PHILADELPHIA   SLEET     26  21  81 S7        30.55F
HENDERSON NC   MIX PCPN  32  30  93 CALM      30.49F
GREENSBORO     LGT RAIN  33  30  88 N6        30.46F FOG
ROCKY MOUNT    LGT RAIN  34  32  92 N7        30.49F FOG
$$

VAZ100-011900-
MARINE

STATION/POSITION TIME  TEMP    WIND        PRES    WAVE   SWELL
                       AIR SEA DIR/SP/G            HT/PER HT/PER
                 (UTC) (F)     (DEG/KT/KT) (MB)    (FT/S) (FT/S)
BRANDYWINE LGT   1800   26 30  110/  4/  5 1034.3S
CAPE MAY NJ      1800   28 32   90/  3/  5 1033.6F
LEWES DE         1800   28 30   60/  4/  5 1033.7F
15NM E FENWICK I 1800   31 34              1032.9F   2/ 7
OCEAN-CITY-INLET 1800   29 31   10/  5/  7 1033.2F
WACHAPREAGUE VA  1800   32 33   20/  6/  9 1032.4F
THOMAS POINT MD  1800   25 31  190/  3/  3 1034.9F
COVE POINT MD    1800   24     150/  1/  2 1034.4R
SOLOMONS ISLAND  1800      32                N/A
BISHOPS HEAD MD  1800   27 30   20/  2/  3 1033.5F
CAMBRIDGE MD     1800   27 32   30/  1/  2 1034.3R
LEWISETTA VA     1800   27 32              1033.7F
RAPPAHANNOCK LGT 1800           10/ 12/ 13 1033.5F
STINGRAY PT      1800   29 32   10/  8/ 10   N/A     1/ 2
YORK RVR RNG VA  1800   30      20/  9/ 11 1032.4F
YORKTOWN VA      1800   31 33   20/  5/  6 1033.0F
DOMINION TERM VA 1800   33      50/  5/  6 1033.1F
KIPTOPEKE VA     1800      37   40/  9/ 12   N/A
CHES BAY BRIDGE  1800   31 33  360/  5/  6 1032.7S
CAPE HENRY VA    1800   32     360/  7/  8 1031.4F
CHESAPEAKE LGHT  1700   35      30/ 14/ 15 1033.8F
WILLOUBY STN VA  1800   32      20/  7/  8 1033.5F
S CRANEY ISL VA  1800           30/  6/  7 1033.0F
CAPE HENRY BUOY  1800      35                N/A     3/ 4
1ST LANDING BUOY 1800   32 33  330/  4/  6 1032.3F   2/ 3
OFFSHORE WE BUOY 1800      37                N/A     3/ 5   2/ 7
64NM E OF VA BCH 1800   58 62  170/ 21/ 25 1031.4F   5/ 5   2/10
DUCK PIER NC     1800   34 35  340/ 11/ 12 1031.8F
44100 DUCK FRF   1800      36                N/A     4/ 5
44056 DUCK FRF   1800      34                N/A     3/ 9
OREGON INLET NC  1800   48 38  120/  7/ 10 1032.1F
HATTERAS NC      1800   52 39  130/  9/ 14 1031.6F
CAPE LOOKOUT NC  1700   58     120/ 11/ 12 1031.6F
$$



USA.gov is the U.S. government's official web portal to all federal, state and local government web resources and services.